[ hide orbit diagram ]
For accurate long-term ephemerides, please instead use our Horizons system.This orbit viewer was implemented using two-body methods, and hence should not be used for determining accurate long-term trajectories (over several years or decades) or planetary encounter circumstances.
Orbital Elements at Epoch 2459200.5 (2020-Dec-17.0) TDB
Reference: JPL 40 (heliocentric ecliptic J2000)
Element | Value | Uncertainty (1-sigma) | Units |
e | .1757589723892885 | 3.0134e-08 | |
a | 2.366707065602673 | 6.098e-09 | au |
q | 1.950737063805879 | 7.2538e-08 | au |
i | 4.787788934727206 | 3.3636e-06 | deg |
node | 187.4707768033602 | 3.6395e-05 | deg |
peri | 321.0158416332215 | 3.7426e-05 | deg |
M | 276.6282980878412 | 9.6618e-06 | deg |
tp | 2459508.486268620272 (2021-Oct-20.98626862) | 3.6206e-05 | TDB |
period | 1329.88836931885 3.64 | 5.1399e-06 1.407e-08 | d yr |
n | .2706994123005879 | 1.0462e-09 | deg/d |
Q | 2.782677067399467 | 7.1698e-09 | au |
|
| | Orbit Determination Parameters
Additional Information
|
[ show covariance matrix ]
Physical Parameter Table
Parameter |
Symbol |
Value |
Units |
Sigma |
Reference |
Notes |
absolute magnitude |
H |
12.87 |
|
n/a |
E2021B10 |
|
diameter |
diameter |
19.441 |
km |
0.180 |
urn:nasa:pds:neowise_diameters_albedos::2.0[mainbelt] (http://adsabs.harvard.edu/abs/2011ApJ...741...68M) |
|
geometric albedo |
albedo |
0.032 |
|
0.003 |
urn:nasa:pds:neowise_diameters_albedos::2.0[mainbelt] (http://adsabs.harvard.edu/abs/2011ApJ...741...68M) |
|
|
2776 Baikal (1976 SZ7) Discovered 1976-Sep-25 by Chernykh, N. at Nauchnyj |
Reference: DISCOVERY.DB | Last Updated: 2003-08-29 |
|
Alternate Designations
1976 SZ7 = 1938 EE1 = 1945 AC = 1949 GB = 1949 HH1 = 1951 WJ1 = 1962 YB = 1967 EA = 1971 KS = 1980 VE2 = 1982 HH1 = 1982 KE1 |
|
|